Aswan, Egypt

10:47 AM EET on August 20, 2017 (GMT +0200)
Aswan

Weather History for HESN - August, 2014

Change the Weather History Date:

Saturday, August 16, 2014

  Actual Average Record
Temperature  
Mean Temperature 92 °F -  
Max Temperature 106 °F 103 °F 114 °F (2015)
Min Temperature 78 °F 79 °F 68 °F (2012)
Cooling Degree Days 27    
Growing Degree Days 42 (Base 50)    
Moisture  
Dew Point 37 °F    
Average Humidity 12    
Maximum Humidity 21    
Minimum Humidity 4    
Precipitation  
Precipitation 0.00 in 0.00 in - ()
Sea Level Pressure  
Sea Level Pressure 29.76 in    
Wind  
Wind Speed 7 mph ()    
Max Wind Speed 18 mph    
Max Gust Speed -    
Visibility 6.0 miles    
Events      
Averages and records for this station are not official NWS values.
T = Trace of Precipitation, MM = Missing Value Source: Averaged Metar Reports

Daily Weather History Graph

Daily Weather History Graph

Search for Another Location

Airport or City:

Trip Planner

Search our weather history database for the weather conditions in past years. The results will help you decide how hot, cold, wet, or windy it might be!

Date:

Astronomy

Aug. 16, 2014 Rise Set
Actual Time 6:24 AM EEST 7:21 PM EEST
Civil Twilight 6:00 AM EEST 7:45 PM EEST
Nautical Twilight 5:32 AM EEST 8:13 PM EEST
Astronomical Twilight 5:04 AM EEST 8:41 PM EEST
Moon 11:38 PM EEST (8/16) 12:03 PM EEST (8/16)
Length of Visible Light 13h 44m
Length of Day
12h 57m
Waning Gibbous, 62% of the Moon is Illuminated
Aug 16
Waning Gibbous
Aug 17
Last Quarter
Aug 25
New
Sep 2
First Quarter
Sep 9
Full

Hourly Weather History & Observations

Time (EEST) Temp. Dew Point Humidity Pressure Visibility Wind Dir Wind Speed Gust Speed Precip Events Conditions
12:00 AM 90 °F 31 °F 6% 29.81 in 6 mi NW 5.8 mph - -  
12:00 AM 91.4 °F 30.2 °F 11% 29.83 in - NW 5.8 mph - N/A   Clear
1:00 AM 89.6 °F 32.0 °F 13% 29.83 in - NNW 5.8 mph - N/A   Clear
2:00 AM 87.8 °F 33.8 °F 15% 29.80 in - NW 4.6 mph - N/A   Clear
3:00 AM 87 °F 39 °F 10% 29.77 in 6 mi WNW 9.2 mph - -  
3:00 AM 86.0 °F 39.2 °F 19% 29.80 in - NW 5.8 mph - N/A   Clear
4:00 AM 86.0 °F 39.2 °F 19% 29.80 in - NW 5.8 mph - N/A   Clear
5:00 AM 84.2 °F 37.4 °F 19% 29.80 in - North 4.6 mph - N/A   Clear
6:00 AM 83 °F 37 °F 11% 29.77 in 6 mi North 4.6 mph - -  
6:00 AM 84.2 °F 37.4 °F 19% 29.80 in - North 4.6 mph - N/A   Clear
7:00 AM 84.2 °F 37.4 °F 19% 29.80 in - NNW 4.6 mph - N/A   Clear
8:00 AM 87.8 °F 37.4 °F 17% 29.83 in - North 3.5 mph - N/A   Clear
9:00 AM 90 °F 38 °F 8% 29.79 in 6 mi North 5.8 mph - -  
9:00 AM 89.6 °F 37.4 °F 16% 29.83 in - North 5.8 mph - N/A   Clear
10:00 AM 95.0 °F 39.2 °F 14% 29.83 in - NNW 6.9 mph - N/A   Clear
11:00 AM - - N/A% 29.80 in - North - - N/A   Clear
12:00 PM 101 °F 41 °F 6% 29.75 in 6 mi NNW 11.5 mph - -  
12:00 PM 100.4 °F 41.0 °F 13% 29.80 in - NNW 11.5 mph - N/A   Clear
1:00 PM 104.0 °F 39.2 °F 11% 29.77 in - NW 10.4 mph - N/A   Clear
2:00 PM 104.0 °F 33.8 °F 9% 29.74 in - NW 15.0 mph - N/A   Clear
3:00 PM 106 °F 35 °F 4% 29.66 in 6 mi NW 12.7 mph - -  
3:00 PM 105.8 °F 35.6 °F 9% 29.71 in - NW 12.7 mph - N/A   Clear
4:00 PM 105.8 °F 35.6 °F 9% 29.71 in - WNW 13.8 mph - N/A   Clear
5:00 PM 105.8 °F 35.6 °F 9% 29.68 in - NW 18.4 mph - N/A   Clear
6:00 PM 105 °F 38 °F 5% 29.63 in 6 mi NW 13.8 mph - -  
6:00 PM 105.8 °F 37.4 °F 10% 29.68 in - NW 13.8 mph - N/A   Clear
7:00 PM 102.2 °F 35.6 °F 10% 29.68 in - NNW 11.5 mph - N/A   Clear
8:00 PM 98.6 °F 37.4 °F 12% 29.68 in - NNW 6.9 mph - N/A   Clear
9:00 PM 97 °F 36 °F 6% 29.66 in 6 mi NW 4.6 mph - -  
9:00 PM 78.8 °F 35.6 °F 21% 29.71 in - NW 4.6 mph - N/A   Clear
10:00 PM 95.0 °F 37.4 °F 13% 29.71 in - NNW 6.9 mph - N/A   Clear
11:00 PM 93.2 °F 37.4 °F 14% 29.71 in - NW 4.6 mph - N/A   Clear